[[{"header":{"parameterUnit":"m.s-1","parameterCategory":1,"la1":30.2991,"la2":30.254,"lo1":-89.0895,"lo2":-89.0444,"dy":0.0017,"dx":0.0017,"nx":28,"ny":28,"refTime":"2024-04-02T09:00:00:Z","depth":0,"parameterNumber":2,"parameterNumberName":"U-component_of_WINDS"},"data":[0,0,0,0,0,0,0,0,0,0,0,0,0,0,0,0,0,0,0,0,0,0,0,0,0,0,0,0,0,0,0,0,0,0,0,0,0,0,0,0,0,0,0,0,0,0,0,0,0,0,0,0,0,0,0,0,0,0,-1.8914,-1.8916,0,-1.9064,-1.9066,-1.9067,-1.9148,-1.9148,-1.9148,-1.9148,-1.9298,-1.9302,-1.9306,0,0,0,0,0,0,0,0,0,0,0,0,0,-1.8694,-1.8698,-1.8914,-1.8916,-1.8918,-1.9064,-1.9066,-1.9068,-1.9148,-1.9148,-1.9148,-1.9149,-1.9297,-1.9301,-1.9306,0,0,0,0,0,0,0,0,0,0,0,0,0,-1.8811,-1.8699,-1.8914,-1.8976,-1.8983,-1.9063,-1.9066,-1.9068,-1.9148,-1.9148,-1.9148,-1.9149,-1.9295,-1.9301,-1.9306,-1.9336,0,0,-1.9324,-1.9326,0,0,0,0,0,0,0,0,-1.8805,-1.8819,-1.8965,-1.8971,-1.8979,-1.9088,-1.9043,-1.9158,-1.9148,-1.9085,-1.9148,-1.9149,-1.9228,-1.9239,-1.9266,-1.9343,-1.935,-1.9324,-1.9328,-1.933,-1.9332,0,0,0,0,0,0,0,-1.8796,-1.8813,-1.8973,-1.8967,-1.8976,-1.8995,-1.9012,-1.9065,-1.9153,-1.909,-1.9097,-1.9113,-1.9232,-1.9261,-1.927,-1.9352,-1.9324,-1.9329,-1.9333,-1.9335,-1.9461,-1.9461,0,0,0,0,0,0,-1.8779,-1.8806,-1.8969,-1.8978,-1.8891,-1.8998,-1.9017,-1.9053,-1.9152,-1.9168,-1.9113,-1.9117,-1.9251,-1.9264,-1.9276,-1.9318,-1.933,-1.9336,-1.9339,-1.9461,-1.9461,-1.9461,0,0,0,0,0,0,-1.8774,-1.8793,-1.8963,-1.8894,-1.8917,-1.9002,-1.9041,-1.9055,-1.9084,-1.917,-1.9185,-1.9127,-1.9251,-1.9268,-1.9321,-1.9324,-1.9338,-1.9344,-1.9461,-1.9461,-1.9461,-1.9401,0,0,0,0,0,0,-1.8767,-1.879,-1.8803,-1.8894,-1.892,-1.9006,-1.9041,-1.9058,-1.9095,-1.9101,-1.9187,-1.9201,-1.9253,-1.9312,-1.9327,-1.9332,-1.9348,-1.9462,-1.9461,-1.9461,-1.9403,-1.9399,-1.9395,0,0,0,0,0,-1.8759,-1.8779,-1.8804,-1.8823,-1.8938,-1.9006,-1.9021,-1.9081,-1.9094,-1.9108,-1.9162,-1.9198,-1.9321,-1.9317,-1.9334,-1.9341,-1.9462,-1.9461,-1.9461,-1.9405,-1.9399,-1.9395,0,0,0,0,0,0,-1.8686,-1.8792,-1.882,-1.8871,-1.8929,-1.9019,-1.9038,-1.9074,-1.9129,-1.9132,-1.9203,-1.9222,-1.9268,-1.931,-1.9303,-1.9375,-1.9395,-1.9398,-1.9346,-1.9342,-1.9338,-1.9327,-1.9353,0,0,0,0,0,-1.8676,-1.8723,-1.8813,-1.8849,-1.8877,-1.8952,-1.8984,-1.9025,-1.9088,-1.9112,-1.9171,-1.923,-1.9282,-1.9314,-1.9367,-1.941,-1.9429,-1.9423,-1.9419,-1.9415,-1.9417,-1.9443,-1.9441,-1.9461,-1.9461,-1.9461,0,0,-1.8655,-1.8719,-1.8744,-1.8835,-1.8886,-1.8932,-1.8972,-1.9019,-1.9054,-1.9119,-1.9174,-1.9218,-1.9288,-1.9337,-1.9361,-1.9373,-1.9416,-1.9415,-1.9411,-1.9415,-1.9442,-1.944,-1.9439,-1.946,-1.946,-1.946,0,0,-1.864,-1.8694,-1.873,-1.8779,-1.8855,-1.8905,-1.8914,-1.8999,-1.9032,-1.9088,-1.9138,-1.918,-1.9268,-1.9316,-1.9352,-1.9356,-1.9391,-1.9371,-1.935,-1.9374,-1.9373,-1.9372,-1.9373,-1.9373,-1.9373,-1.9372,-1.9372,0,-1.8604,-1.8677,-1.8743,-1.8788,-1.8826,-1.8889,-1.8925,-1.897,-1.9058,-1.9083,-1.9096,-1.9208,-1.9259,-1.932,-1.9321,-1.9348,-1.9359,-1.9361,-1.9368,-1.9368,-1.9368,-1.937,-1.937,-1.937,-1.937,-1.937,-1.937,0,-1.8629,-1.8679,-1.8698,-1.8784,-1.8825,-1.8864,-1.8935,-1.8969,-1.9007,-1.9055,-1.9111,-1.9175,-1.9242,-1.926,-1.9297,-1.9325,-1.933,-1.9354,-1.9376,-1.9362,-1.9365,-1.9366,-1.9365,-1.9366,-1.9367,-1.9368,0,0,-1.8572,-1.8694,-1.87,-1.8739,-1.8828,-1.8867,-1.891,-1.8976,-1.9003,-1.9062,-1.9099,-1.9173,-1.9196,-1.9237,-1.928,-1.9301,-1.93,-1.9323,-1.9326,-1.9316,-1.9336,-1.9316,-1.9316,-1.9325,-1.9325,-1.9325,-1.933,0,-1.857,-1.8651,-1.8711,-1.8768,-1.8815,-1.8876,-1.8913,-1.8971,-1.9017,-1.9063,-1.9114,-1.9165,-1.9192,-1.9217,-1.9241,-1.9295,-1.9305,-1.9296,-1.9359,-1.936,-1.9339,-1.9318,-1.9298,-1.9299,-1.9331,-1.9332,-1.9332,0,-1.8578,-1.8636,-1.8698,-1.8782,-1.8804,-1.8836,-1.8903,-1.8946,-1.9012,-1.9045,-1.9091,-1.9136,-1.9183,-1.92,-1.9265,-1.9258,-1.9287,-1.9318,-1.932,-1.9327,-1.9345,-1.9324,-1.9301,-1.93,-1.9334,-1.9334,-1.9334,0,-1.8529,-1.8623,-1.8672,-1.8704,-1.8804,-1.8825,-1.8867,-1.8935,-1.8971,-1.9029,-1.9053,-1.9114,-1.9148,-1.9194,-1.9254,-1.9262,-1.9314,-1.9336,-1.9341,-1.9339,-1.9349,-1.9347,-1.9328,-1.9368,-1.9368,-1.9368,-1.9368,0,-1.8519,-1.8555,-1.8652,-1.8682,-1.8723,-1.8793,-1.8832,-1.8879,-1.8938,-1.8978,-1.9035,-1.907,-1.9148,-1.9194,-1.9241,-1.9288,-1.9303,-1.9329,-1.9341,-1.9324,-1.9321,-1.9344,-1.9345,-1.9368,-1.9368,-1.9368,-1.9368,0,-1.8471,-1.8538,-1.8596,-1.8686,-1.8709,-1.8736,-1.8813,-1.8844,-1.8894,-1.8944,-1.896,-1.9038,-1.9095,-1.916,-1.9237,-1.9269,-1.9312,-1.933,-1.9289,-1.9296,-1.9298,-1.9296,-1.9293,-1.9296,-1.9333,-1.9333,-1.9333,0,-1.846,-1.8489,-1.8583,-1.8615,-1.8656,-1.8706,-1.8743,-1.8813,-1.885,-1.8928,-1.895,-1.9011,-1.9064,-1.9151,-1.9214,-1.9273,-1.9293,-1.9288,-1.9302,-1.9284,-1.9292,-1.929,-1.9293,-1.9283,-1.9282,-1.9282,-1.9281,0,-1.8434,-1.8466,-1.8519,-1.8583,-1.8627,-1.8681,-1.8737,-1.876,-1.884,-1.8879,-1.8938,-1.8978,-1.9059,-1.9118,-1.9186,-1.9229,-1.9268,-1.9277,-1.9281,-1.9263,-1.9238,-1.9251,-1.9278,-1.9276,-1.9276,-1.9277,-1.9277,-1.9277,-1.8404,-1.8433,-1.8503,-1.8561,-1.8611,-1.8662,-1.8696,-1.8751,-1.8802,-1.8873,-1.8911,-1.8969,-1.9036,-1.9131,-1.9173,-1.9219,-1.9232,-1.9238,-1.924,-1.924,-1.9235,-1.9231,-1.9232,-1.9232,-1.9232,-1.9232,-1.9233,0,-1.838,-1.8429,-1.8481,-1.8558,-1.8603,-1.8638,-1.8703,-1.8737,-1.8788,-1.8848,-1.8899,-1.8967,-1.9025,-1.9094,-1.9156,-1.918,-1.92,-1.9194,-1.9193,-1.9202,-1.922,-1.921,-1.9177,-1.9177,-1.9177,-1.9177,-1.9177,-1.9177,-1.8372,-1.8423,-1.8463,-1.8539,-1.8588,-1.8646,-1.868,-1.8727,-1.8775,-1.8849,-1.8898,-1.8943,-1.9006,-1.9074,-1.9129,-1.9148,-1.9168,-1.9157,-1.9181,-1.9196,-1.9201,-1.9205,-1.9196,-1.9161,-1.9161,-1.9159,-1.9159,-1.9159]},{"header":{"parameterUnit":"m.s-1","parameterCategory":1,"la1":30.2991,"la2":30.254,"lo1":-89.0895,"lo2":-89.0444,"dy":0.0017,"dx":0.0017,"nx":28,"ny":28,"refTime":"2024-04-02T09:00:00:Z","depth":0,"parameterNumber":3,"parameterNumberName":"V-component_of_WINDS"},"data":[0,0,0,0,0,0,0,0,0,0,0,0,0,0,0,0,0,0,0,0,0,0,0,0,0,0,0,0,0,0,0,0,0,0,0,0,0,0,0,0,0,0,0,0,0,0,0,0,0,0,0,0,0,0,0,0,0,0,5.5145,5.5147,0,5.5356,5.5358,5.5361,5.542,5.5419,5.5418,5.5417,5.5629,5.5635,5.5642,0,0,0,0,0,0,0,0,0,0,0,0,0,5.4791,5.4797,5.5145,5.5147,5.515,5.5356,5.5359,5.5361,5.5421,5.5419,5.5418,5.5416,5.5626,5.5634,5.5642,0,0,0,0,0,0,0,0,0,0,0,0,0,5.4967,5.4799,5.5144,5.5204,5.5212,5.5355,5.5359,5.5362,5.5421,5.5419,5.5417,5.5416,5.5624,5.5633,5.5643,5.574,0,0,5.5674,5.5679,0,0,0,0,0,0,0,0,5.4957,5.498,5.5193,5.5201,5.5209,5.536,5.5311,5.5489,5.5421,5.5341,5.5417,5.5415,5.554,5.5557,5.56,5.575,5.5759,5.5675,5.5681,5.5686,5.5688,0,0,0,0,0,0,0,5.4945,5.4971,5.5228,5.5196,5.5206,5.522,5.5243,5.5345,5.5448,5.5348,5.5353,5.5378,5.5544,5.5591,5.5606,5.5762,5.5675,5.5684,5.569,5.5694,5.6007,5.6009,0,0,0,0,0,0,5.4923,5.4961,5.5221,5.5234,5.5076,5.5228,5.5254,5.5313,5.5447,5.5466,5.5379,5.5379,5.5574,5.5594,5.5613,5.5739,5.5685,5.5695,5.5701,5.6004,5.6007,5.601,0,0,0,0,0,0,5.4915,5.4945,5.5213,5.5099,5.5134,5.5236,5.5302,5.5318,5.5365,5.547,5.5488,5.5407,5.5574,5.5599,5.571,5.5747,5.5699,5.5709,5.6002,5.6005,5.6008,5.5988,0,0,0,0,0,0,5.4904,5.4942,5.498,5.51,5.514,5.5306,5.5305,5.5324,5.5383,5.5386,5.5502,5.5519,5.5574,5.5694,5.572,5.576,5.5716,5.5999,5.6003,5.6007,5.5986,5.5991,5.5995,0,0,0,0,0,5.4892,5.4964,5.4982,5.5013,5.519,5.5308,5.5331,5.5394,5.5385,5.5425,5.5493,5.5516,5.5739,5.5705,5.5734,5.5778,5.5997,5.6002,5.6007,5.5984,5.599,5.5994,0,0,0,0,0,0,5.4844,5.4981,5.5002,5.5116,5.52,5.5318,5.5369,5.5397,5.5485,5.5484,5.5557,5.5583,5.5689,5.5744,5.5704,5.5881,5.5868,5.5879,5.5841,5.5847,5.5851,5.5836,5.5725,0,0,0,0,0,5.4847,5.4933,5.5047,5.5136,5.5178,5.5266,5.532,5.5362,5.5451,5.5487,5.5563,5.5648,5.5738,5.5795,5.5883,5.5994,5.6022,5.6039,5.6043,5.6046,5.6055,5.6121,5.6131,5.6026,5.6026,5.6026,0,0,5.4854,5.4939,5.4988,5.5129,5.5199,5.5286,5.5296,5.5386,5.5451,5.55,5.5611,5.5669,5.5769,5.5881,5.5934,5.5931,5.609,5.6053,5.6054,5.6062,5.6128,5.6137,5.6146,5.603,5.6029,5.6029,0,0,5.4911,5.4983,5.5067,5.5139,5.5246,5.5305,5.5325,5.544,5.5482,5.5594,5.5634,5.5712,5.5864,5.5935,5.5991,5.6079,5.6104,5.6105,5.6127,5.6191,5.6199,5.6207,5.6241,5.6252,5.6114,5.6113,5.6113,0,5.4905,5.5039,5.5106,5.5197,5.5259,5.5309,5.5396,5.5461,5.5591,5.5632,5.5627,5.5822,5.5892,5.6023,5.6045,5.6088,5.6114,5.6092,5.6193,5.6201,5.6209,5.6243,5.6255,5.6113,5.6113,5.6113,5.6113,0,5.5028,5.512,5.5175,5.5303,5.537,5.5457,5.5539,5.5599,5.5636,5.5695,5.581,5.5897,5.6006,5.6039,5.6074,5.6177,5.6172,5.6178,5.6167,5.6218,5.6251,5.6263,5.6113,5.6113,5.6113,5.6113,0,0,5.5059,5.5226,5.5245,5.5306,5.543,5.5502,5.5592,5.5701,5.5752,5.584,5.5919,5.6049,5.6057,5.6121,5.6164,5.622,5.6288,5.6221,5.6224,5.6232,5.6409,5.6405,5.6418,5.6305,5.6308,5.631,5.6402,0,5.5134,5.53,5.5365,5.5499,5.5587,5.5638,5.5717,5.5802,5.586,5.5942,5.6006,5.6098,5.6101,5.614,5.6198,5.6267,5.6325,5.6261,5.638,5.6383,5.6355,5.6435,5.643,5.6512,5.6414,5.6417,5.6418,0,5.5242,5.5335,5.548,5.5597,5.5636,5.5706,5.5813,5.589,5.5988,5.6027,5.61,5.6141,5.6238,5.6221,5.6357,5.6313,5.6365,5.6407,5.6412,5.6426,5.6405,5.6454,5.654,5.6553,5.6438,5.6437,5.6435,0,5.5254,5.5415,5.5524,5.5573,5.5711,5.576,5.582,5.5916,5.5978,5.6071,5.6112,5.6213,5.6269,5.6347,5.6415,5.6396,5.6546,5.6533,5.6582,5.6581,5.6612,5.661,5.671,5.6643,5.6642,5.6642,5.6642,0,5.5332,5.5418,5.5532,5.5598,5.5698,5.5772,5.5868,5.5931,5.6017,5.6097,5.6145,5.6219,5.6304,5.6389,5.6442,5.6549,5.6573,5.6607,5.6621,5.6604,5.66,5.6641,5.6637,5.6645,5.6645,5.6644,5.6643,0,5.5362,5.5441,5.5563,5.5685,5.5718,5.5786,5.5891,5.5958,5.602,5.6121,5.6148,5.6245,5.6348,5.6424,5.6555,5.6592,5.6706,5.6718,5.6674,5.6681,5.6727,5.6722,5.6858,5.6881,5.6795,5.6796,5.6797,0,5.5407,5.5476,5.5607,5.5665,5.5726,5.5818,5.5883,5.5959,5.6025,5.6143,5.6196,5.6303,5.6393,5.6555,5.6636,5.6738,5.6755,5.6796,5.677,5.6753,5.6759,5.6755,5.6763,5.6799,5.68,5.68,5.6801,0,5.548,5.5516,5.5609,5.5716,5.5793,5.5881,5.5969,5.6013,5.6105,5.6176,5.6284,5.6354,5.6491,5.6597,5.6708,5.6768,5.6801,5.6808,5.6825,5.681,5.6782,5.6801,5.6686,5.6805,5.6804,5.6804,5.6804,5.6804,5.5521,5.5586,5.5689,5.5792,5.5867,5.5949,5.6019,5.6092,5.6183,5.6302,5.6341,5.6453,5.6551,5.6704,5.6766,5.6855,5.6854,5.6878,5.6884,5.689,5.689,5.6767,5.6875,5.6875,5.6875,5.6875,5.6875,0,5.5598,5.5668,5.5762,5.5886,5.5967,5.5992,5.6092,5.6158,5.6256,5.6346,5.6435,5.6559,5.6663,5.6754,5.6862,5.6916,5.6934,5.6942,5.6939,5.6954,5.6883,5.6859,5.6926,5.6926,5.6926,5.6926,5.6926,5.6926,5.5648,5.5761,5.581,5.5961,5.603,5.6142,5.6197,5.6274,5.6347,5.6485,5.6572,5.6632,5.6723,5.6839,5.6936,5.696,5.6998,5.7004,5.7031,5.6964,5.6958,5.6952,5.693,5.7011,5.7011,5.7095,5.7096,5.7096]}]]